Location: New York
(40.7127°N, 74.0060°W)
Time: 18:26:06
(UTC-04:00)

UNISAT 6 - Pass Details

Date: 30 April 2024
Orbit: 593 x 667 km, 97.7° (Epoch: 27 May)

Event Time Altitude Azimuth Distance (km) Brightness Sun altitude
Rises 04:04:56 0° 139° (SE) 2,896 ? -18.8°
Reaches altitude 10° 04:07:22 10° 128° (SE) 1,981 ? -18.4°
Maximum altitude 04:11:01 28° 70° (ENE) 1,169 ? -17.9°
Drops below altitude 10° 04:14:37 10° 11° (NNE) 1,959 ? -17.4°
Sets 04:17:01 0° 0° (N) 2,858 ? -17.0°
